1531486800.28,37439,19.94,74056.5,9.69,-2.43,1.51,0,*5C
1531486801.48,37440,19.94,74056.0,9.67,-2.19,1.47,0,*54
1531486802.7,37441,19.94,74056.0,9.69,-2.15,1.47,0,*57
1531486803.91,37442,19.94,74058.5,9.69,-1.17,2.35,0,*53
1531486805.14,37443,19.94,74056.3,9.69,-1.17,2.21,0,*57
1531486806.37,37444,19.94,74058.5,9.69,-1.67,1.67,0,*56
1531486807.59,37445,19.94,74058.0,9.69,-0.97,2.31,0,*69
1531486808.82,37446,19.94,74056.3,9.69,-0.81,2.25,0,*68
1531486810.04,37447,19.94,74056.0,9.67,-1.09,1.89,0,*53
1531486811.24,37448,19.94,74054.5,9.69,-0.45,2.35,0,*6F
1531486812.44,37449,19.94,74054.5,9.67,-0.11,2.47,0,*64
1531486813.63,37450,19.94,74048.5,9.67,0.63,2.95,0,*4B
1531486814.86,37451,19.94,74038.3,9.69,1.05,3.23,0,*79
1531486816.1,37452,19.94,74034.5,9.69,0.75,2.81,0,*45
1531486817.33,37453,19.94,74042.3,9.67,0.91,2.73,0,*4D
1531486818.56,37454,19.94,74050.8,9.67,0.91,2.69,0,*41
1531486819.76,37455,19.94,74054.5,9.69,1.41,2.95,0,*71
1531486820.99,37456,19.94,74058.3,9.69,1.41,2.81,0,*77
1531486822.23,37457,19.94,74052.0,9.69,0.79,2.01,0,*44
1531486823.49,37458,19.94,74054.5,9.69,1.63,2.81,0,*79
1531486824.73,37459,19.94,74052.8,9.69,2.21,3.19,0,*7D
1531486825.95,37460,19.94,74050.5,9.67,2.21,3.11,0,*71
1531486827.18,37461,19.94,74058.8,9.69,2.95,3.79,0,*7F
1531486828.4,37462,19.94,74056.3,9.73,2.89,3.59,0,*78
1531486829.65,37463,19.94,74056.5,9.73,2.85,3.49,0,*74
1531486830.86,37464,19.94,74056.0,9.71,2.25,2.65,0,*74
1531486832.09,37465,19.94,74058.5,9.73,2.61,3.15,0,*71
1531486833.32,37466,19.94,74054.5,9.73,2.99,3.37,0,*75
1531486834.57,37467,19.94,74048.8,9.73,2.55,2.89,0,*70
1531486835.81,37468,19.94,74046.8,9.73,2.95,3.15,0,*77
1531486837.01,37469,19.94,74048.5,9.79,3.29,3.53,0,*78
1531486838.18,37470,19.94,74046.5,9.79,4.11,4.27,0,*78
1531486839.37,37471,19.94,74052.8,9.79,4.37,4.45,0,*79
1531486840.57,37472,19.94,74056.0,9.81,4.27,4.33,0,*7D
1531486841.78,37473,19.94,74054.5,9.83,4.53,4.71,0,*7B
1531486842.98,37474,19.94,74054.5,9.87,4.79,4.89,0,*77
1531486844.2,37475,19.94,74054.3,9.89,4.37,4.45,0,*72
1531486845.4,37476,19.94,74056.0,9.89,4.23,4.23,0,*74
1531486846.6,37477,19.94,74056.0,9.91,3.97,3.89,0,*73
1531486847.81,37478,19.94,74056.5,9.95,3.81,3.75,0,*7C
1531486849.0,37479,19.94,74056.0,9.95,3.93,3.81,0,*75
1531486850.18,37480,19.94,74058.0,9.95,3.93,3.85,0,*77
1531486851.37,37481,19.94,74056.3,9.99,3.97,3.85,0,*7E
1531486852.56,37482,19.94,74058.0,9.99,3.93,3.81,0,*7D
1531486853.76,37483,19.94,74060.0,10.01,4.19,4.27,0,*4B
1531486854.96,37484,20.0,74062.5,10.01,4.19,4.07,0,*4E
1531486856.14,37485,19.94,74062.3,10.03,4.27,4.11,0,*47
1531486857.36,37486,19.94,74056.8,10.05,4.37,4.31,0,*41
1531486858.57,37487,19.94,74060.8,10.07,4.27,4.15,0,*45
1531486859.75,37488,19.94,74060.5,10.09,4.33,4.11,0,*45
1531486860.96,37489,19.94,74062.8,10.09,4.31,4.07,0,*41
1531486862.15,37490,19.94,74058.5,10.13,4.15,3.93,0,*4E
1531486863.38,37491,19.94,74060.0,10.13,3.67,3.23,0,*46
1531486864.58,37492,19.94,74060.0,10.15,3.55,2.99,0,*42
1531486865.81,37493,19.94,74060.5,10.15,3.55,3.11,0,*42
1531486867.06,37494,19.94,74062.3,10.15,3.19,2.69,0,*43
1531486868.28,37495,19.94,74062.5,10.15,3.29,2.61,0,*49
1531486869.49,37496,19.94,74062.8,10.17,1.83,1.09,0,*47
1531486870.75,37497,19.94,74064.5,10.15,1.55,0.83,0,*7C
1531486872.0,37498,19.94,74066.0,10.15,1.17,0.29,0,*75
1531486873.21,37499,19.94,74066.5,10.13,0.55,-0.33,0,*63
1531486874.44,37500,19.94,74064.0,10.11,0.05,-0.85,0,*58
1531486875.67,37501,20.0,74064.8,10.07,0.47,-0.29,0,*6E
1531486876.91,37502,19.94,74060.0,10.07,0.47,-0.41,0,*63
1531486878.12,37503,20.0,74066.8,10.07,-0.33,-1.29,0,*73
1531486879.35,37504,19.94,74066.3,10.05,-1.13,-2.19,0,*45
1531486880.53,37505,20.0,74064.8,10.03,-1.79,-2.83,0,*4D
1531486881.77,37506,19.94,74058.8,10.01,-1.91,-2.83,0,*4A
1531486882.99,37507,19.94,74060.5,9.95,-1.29,-2.11,0,*76
1531486884.23,37508,19.94,74060.0,9.93,-1.43,-2.39,0,*79
1531486885.47,37509,19.94,74056.8,9.93,-2.03,-2.91,0,*7D
1531486886.73,37510,19.94,74062.0,9.89,-2.71,-3.43,0,*75
1531486887.97,37511,19.94,74062.0,9.89,-3.19,-3.59,0,*70
1531486889.15,37512,19.94,74054.8,9.87,-2.83,-2.83,0,*79
1531486890.34,37513,19.94,74054.0,9.87,-3.31,-3.07,0,*7D
1531486891.56,37514,19.94,74054.5,9.85,-3.95,-3.19,0,*79
1531486892.75,37515,19.94,74054.5,9.83,-4.33,-3.39,0,*77
1531486893.96,37516,19.94,74054.5,9.81,-5.47,-4.09,0,*70
1531486895.18,37517,19.94,74052.5,9.79,-6.47,-4.85,0,*71
1531486896.41,37518,19.94,74050.5,9.77,-5.19,-3.11,0,*72
1531486897.64,37519,19.94,74044.0,9.71,-4.85,-2.51,0,*74
1531486898.85,37520,19.94,74042.5,9.71,-5.61,-2.91,0,*79
1531486900.06,37521,19.94,74046.5,9.69,-5.51,-2.43,0,*7D
1531486901.3,37522,19.94,74046.3,9.69,-5.93,-2.43,0,*70
1531486902.54,37523,19.94,74042.3,9.65,-6.23,-2.19,0,*7A
1531486903.78,37524,19.94,74044.5,9.65,-6.09,-1.83,0,*75
1531486904.97,37525,19.94,74038.0,9.63,-6.55,-2.15,0,*77
1531486906.18,37526,19.94,74036.0,9.63,-6.27,-1.51,0,*72
1531486907.4,37527,19.94,74040.3,9.59,-6.55,-1.91,0,*73
1531486908.64,37528,19.94,74040.3,9.57,-6.43,-1.83,0,*76
1531486909.85,37529,19.94,74038.3,9.55,-6.35,-2.07,0,*7B
1531486911.07,37530,19.94,74038.5,9.49,-6.13,-1.75,0,*7C
1531486912.31,37531,19.94,74038.0,9.45,-6.05,-1.35,0,*72
1531486913.52,37532,19.94,74042.0,9.43,-6.69,-1.95,0,*77
1531486914.76,37533,19.94,74040.8,9.41,-6.51,-1.91,0,*7B
1531486916.0,37534,19.94,74040.3,9.39,-6.51,-2.03,0,*7B
1531486917.23,37535,19.94,74034.3,9.37,-5.73,-1.43,0,*70
1531486918.48,37536,19.94,74046.3,9.33,-6.19,-2.07,0,*7B
1531486919.72,37537,19.94,74038.5,9.27,-5.07,-1.17,0,*71
1531486920.93,37538,19.94,74044.8,9.27,-3.95,-0.29,0,*4F
1531486922.14,37539,19.94,74048.0,9.25,-3.27,0.29,0,*68
1531486923.37,37540,19.94,74052.5,9.25,-2.75,0.71,0,*6D
1531486924.57,37541,19.94,74054.5,9.25,-2.15,1.29,0,*56
1531486925.76,37542,19.94,74048.8,9.25,-3.19,-0.15,0,*4B
1531486927.0,37543,20.0,74050.5,9.23,-3.95,-0.97,0,*42
1531486928.2,37544,19.94,74050.0,9.23,-2.95,0.01,0,*56
1531486929.41,37545,19.94,74052.5,9.21,-2.19,0.55,0,*60
1531486930.61,37546,19.94,74054.3,9.21,-2.31,0.13,0,*6B
1531486931.82,37547,19.94,74052.5,9.19,-2.91,-0.53,0,*42
1531486933.05,37548,19.94,74058.0,9.17,-2.55,-0.27,0,*48
1531486934.3,37549,19.94,74058.5,9.15,-1.87,0.33,0,*6F
1531486935.56,37550,19.94,74058.3,9.15,-1.43,0.59,0,*63
1531486936.78,37551,19.94,74058.8,9.15,-1.25,0.83,0,*65
1531486937.98,37552,20.0,74052.0,9.13,-0.93,0.97,0,*59
1531486939.24,37553,19.94,74050.5,9.11,-1.13,0.71,0,*6B
1531486940.43,37554,19.94,74048.3,9.13,-0.33,1.29,0,*61
1531486941.64,37555,19.94,74050.8,9.13,-0.41,1.17,0,*68
1531486942.87,37556,20.0,74058.3,9.13,0.51,1.85,0,*4C
1531486944.11,37557,19.94,74054.0,9.11,0.37,1.67,0,*43
1531486945.33,37558,19.94,74056.0,9.13,0.91,2.21,0,*43
1531486946.57,37559,19.94,74058.0,9.13,0.91,2.09,0,*48
1531486947.78,37560,19.94,74058.5,9.13,0.63,1.71,0,*43
1531486948.98,37561,19.94,74056.0,9.13,0.97,1.97,0,*41
1531486950.19,37562,19.94,74054.0,9.13,1.13,2.31,0,*70
1531486951.45,37563,19.94,74052.8,9.15,1.55,2.51,0,*73
1531486952.68,37564,19.94,74054.0,9.15,0.59,1.29,0,*45
1531486953.92,37565,19.94,74054.8,9.15,0.25,0.95,0,*79
1531486955.14,37566,19.94,74058.5,9.13,0.55,1.29,0,*4D
1531486956.38,37567,19.94,74054.3,9.11,1.09,1.83,0,*76
1531486957.64,37568,19.94,74056.5,9.11,1.09,1.85,0,*7F
1531486958.87,37569,19.94,74050.5,9.11,0.97,1.67,0,*44
1531486960.09,37570,19.94,74054.5,9.11,0.97,1.59,0,*41
1531486961.31,37571,19.94,74050.3,9.11,0.97,1.59,0,*40
1531486962.54,37572,20.0,74046.0,9.09,1.47,2.09,0,*70
1531486963.78,37573,19.94,74044.0,9.09,1.37,1.59,0,*70
1531486964.97,37574,19.94,74042.3,9.09,0.97,1.47,0,*43
1531486966.21,37575,19.94,74044.5,9.05,0.55,0.95,0,*7E
1531486967.45,37576,19.94,74048.0,9.05,0.95,1.29,0,*47
1531486968.65,37577,19.94,74044.5,9.03,1.37,1.75,0,*70
1531486969.9,37578,19.94,74048.8,9.01,1.17,1.47,0,*7E
1531486971.1,37579,19.94,74048.5,9.03,0.87,1.05,0,*43
1531486972.35,37580,19.94,74050.8,9.01,1.47,1.67,0,*7E
1531486973.57,37581,19.94,74048.5,9.01,1.75,1.97,0,*71
1531486974.79,37582,19.94,74052.3,9.01,2.21,2.31,0,*7F
1531486976.01,37583,19.94,74048.8,8.99,1.71,1.59,0,*75
1531486977.24,37584,19.94,74050.5,8.97,0.25,0.37,0,*75
1531486978.48,37585,19.94,74054.3,8.97,0.51,0.87,0,*7C
1531486979.73,37586,19.94,74060.3,8.93,1.29,1.47,0,*78
1531486980.96,37587,19.94,74058.3,8.93,2.13,2.27,0,*76
1531486982.2,37588,19.94,74066.5,8.93,2.85,3.11,0,*72
1531486983.41,37589,19.94,74060.8,8.93,2.27,2.61,0,*7D
1531486984.61,37590,19.94,74056.8,8.95,1.55,1.79,0,*7F
1531486985.84,37591,19.94,74056.3,8.93,1.05,1.29,0,*78
1531486987.04,37592,19.94,74058.8,8.93,-0.11,0.05,0,*6D
1531486988.27,37593,19.94,74056.5,8.89,0.51,0.79,0,*75
1531486989.51,37594,19.94,74060.3,8.85,0.67,0.87,0,*7A
1531486990.74,37595,19.94,74056.3,8.81,0.67,0.95,0,*7C
1531486991.96,37596,20.0,74058.0,8.79,0.67,0.91,0,*7C
1531486993.19,37597,19.94,74048.3,8.77,0.97,1.21,0,*46
1531486994.42,37598,19.94,74050.0,8.75,0.67,0.75,0,*74
1531486995.62,37599,19.94,74052.3,8.73,1.79,1.71,0,*78
1531486996.88,37600,19.94,74048.5,8.71,1.33,1.29,0,*7A
1531486998.12,37601,19.94,74054.5,8.71,0.95,0.83,0,*77
1531486999.36,37602,19.94,74056.0,8.67,0.29,0.25,0,*78
1531487000.53,37603,19.94,74054.8,8.65,0.01,-0.11,0,*6B
1531487001.73,37604,19.94,74054.3,8.63,-0.37,-0.61,0,*75
1531487002.92,37605,19.94,74052.0,8.57,0.17,0.01,0,*47
1531487004.13,37606,19.94,74058.0,8.53,0.29,0.13,0,*7E
1531487005.35,37607,19.94,74052.3,8.53,0.47,0.41,0,*70
1531487006.59,37608,19.94,74054.3,8.51,0.47,0.37,0,*7C
1531487007.81,37609,19.94,74050.3,8.49,0.59,0.55,0,*7F
1531487009.03,37610,19.94,74048.3,8.49,0.71,0.71,0,*7B
1531487010.23,37611,19.94,74044.3,8.45,0.97,0.79,0,*76
1531487011.42,37612,19.94,74046.3,8.45,1.47,1.41,0,*73
1531487012.66,37613,19.94,74044.3,8.41,0.95,0.71,0,*7A
1531487013.87,37614,19.94,74046.3,8.39,0.33,0.21,0,*7B
1531487015.08,37615,19.94,74044.8,8.39,0.59,0.55,0,*75
1531487016.32,37616,19.94,74054.5,8.33,0.71,0.63,0,*73
1531487017.57,37617,19.94,74054.0,8.33,0.87,0.59,0,*72
1531487018.73,37618,20.0,74058.8,8.31,0.09,-0.03,0,*5B
1531487019.99,37619,19.94,74056.8,8.29,1.21,1.17,0,*71
1531487021.23,37620,19.94,74056.3,8.29,1.93,1.71,0,*72
1531487022.45,37621,19.94,74058.0,8.29,1.83,1.71,0,*72
1531487023.71,37622,19.94,74062.8,8.29,2.25,2.17,0,*7D
1531487024.96,37623,19.94,74062.0,8.29,2.05,2.01,0,*79
1531487026.18,37624,20.0,74060.3,8.27,2.05,1.93,0,*78
1531487027.42,37625,19.94,74058.8,8.29,2.01,1.89,0,*78
1531487028.62,37626,19.94,74060.3,8.27,2.27,2.17,0,*75
1531487029.84,37627,19.94,74062.8,8.27,1.93,1.71,0,*7B
1531487031.04,37628,19.94,74060.8,8.27,1.41,1.21,0,*7E
1531487032.26,37629,20.0,74066.0,8.27,1.59,1.43,0,*72
1531487033.48,37630,19.94,74064.0,8.25,1.55,1.41,0,*76
1531487034.7,37631,19.94,74058.0,8.25,1.01,0.83,0,*49
1531487035.91,37632,19.94,74056.5,8.23,1.43,1.43,0,*77
1531487037.15,37633,19.94,74056.3,8.23,1.33,1.21,0,*75
1531487038.38,37634,19.94,74058.8,8.23,1.37,1.33,0,*75
1531487039.64,37635,19.94,74056.3,8.21,1.37,1.37,0,*72
1531487040.88,37636,19.94,74056.3,8.21,1.71,1.71,0,*71
1531487042.12,37637,19.94,74056.3,8.21,1.43,1.47,0,*74
1531487043.36,37638,19.94,74052.5,8.21,0.47,0.51,0,*78
1531487044.59,37639,19.94,74052.3,8.17,1.29,1.41,0,*75
1531487045.84,37640,20.0,74058.5,8.17,0.83,0.87,0,*71
1531487047.06,37641,19.94,74058.3,8.15,1.43,1.51,0,*75
1531487048.28,37642,19.94,74056.3,8.15,1.37,1.43,0,*76
1531487049.51,37643,19.94,74058.5,8.15,2.01,2.13,0,*77
1531487050.73,37644,19.94,74060.3,8.15,2.39,2.59,0,*75
1531487051.95,37645,19.94,74062.3,8.15,2.21,2.21,0,*72
1531487053.14,37646,19.94,74062.3,8.15,1.93,2.27,0,*7D
1531487054.35,37647,19.94,74060.5,8.15,2.59,2.61,0,*7B
1531487055.58,37648,19.94,74058.8,8.17,2.99,3.11,0,*7C
1531487056.84,37649,19.94,74056.8,8.17,3.23,3.33,0,*7D
1531487058.06,37650,19.94,74060.0,8.17,2.85,2.95,0,*75
1531487059.29,37651,19.94,74052.3,8.19,2.43,2.55,0,*7C
1531487060.52,37652,19.94,74054.3,8.19,2.17,2.25,0,*79
1531487061.75,37653,19.94,74050.0,8.17,2.31,2.43,0,*72
1531487062.99,37654,19.94,74054.3,8.19,2.05,2.13,0,*79
1531487064.21,37655,19.94,74052.5,8.17,1.79,1.71,0,*79
1531487065.43,37656,19.94,74050.8,8.17,1.79,1.89,0,*7D
1531487066.66,37657,19.94,74052.5,8.15,1.97,2.09,0,*75
1531487067.88,37658,19.94,74054.8,8.15,1.63,1.67,0,*7A
1531487069.1,37659,19.94,74054.3,8.11,1.37,1.41,0,*7A
1531487070.31,37660,19.94,74056.0,8.11,1.01,1.01,0,*71
1531487071.48,37661,19.94,74052.8,8.09,1.75,1.75,0,*79
1531487072.73,37662,19.94,74054.8,8.07,1.71,1.59,0,*7E
1531487073.95,37663,19.94,74056.8,8.07,1.89,1.83,0,*7F
1531487075.15,37664,19.94,74058.3,8.07,1.83,1.79,0,*77
1531487076.39,37665,19.94,74054.5,8.07,2.05,2.01,0,*77
1531487077.61,37666,19.94,74062.8,8.07,2.39,2.31,0,*78
1531487078.83,37667,19.94,74064.0,8.07,2.61,2.55,0,*76
1531487080.08,37668,19.94,74062.5,8.07,2.85,2.73,0,*77
1531487081.3,37669,19.94,74060.8,8.07,2.61,2.55,0,*78
1531487082.55,37670,19.94,74062.8,8.07,2.89,2.89,0,*77
1531487083.77,37671,19.94,74062.8,8.07,2.43,2.27,0,*74
1531487085.02,37672,19.94,74060.0,8.07,2.51,2.51,0,*75
1531487086.23,37673,19.94,74060.8,8.07,2.65,2.61,0,*70
1531487087.45,37674,19.94,74060.0,8.07,2.61,2.43,0,*73
1531487088.68,37675,19.94,74062.0,8.09,2.89,2.89,0,*7C
1531487089.91,37676,19.94,74064.8,8.07,3.03,2.91,0,*7B
1531487091.11,37677,19.94,74064.3,8.09,3.29,3.07,0,*72
1531487092.35,37678,19.94,74064.3,8.09,3.07,3.03,0,*75
1531487093.57,37679,19.94,74064.8,8.07,3.33,3.25,0,*79
1531487094.78,37680,19.94,74064.3,8.09,3.29,3.15,0,*79
1531487095.98,37681,19.94,74066.3,8.09,3.29,3.19,0,*74
1531487097.21,37682,19.94,74066.5,8.15,3.07,2.73,0,*7B
1531487098.44,37683,19.94,74066.8,8.11,2.65,2.43,0,*78
1531487099.64,37684,19.94,74066.5,8.11,2.65,2.35,0,*7E
1531487100.84,37685,19.94,74064.5,8.15,3.23,2.95,0,*72
1531487102.04,37686,19.94,74066.0,8.11,3.29,2.95,0,*7F
1531487103.24,37687,19.94,74066.0,8.15,2.95,2.81,0,*79
1531487104.44,37688,19.94,74064.5,8.15,2.99,2.81,0,*7A
1531487105.64,37689,19.94,74068.0,8.15,3.19,2.99,0,*7B
1531487106.86,37690,19.94,74066.8,8.15,3.45,3.33,0,*7B
1531487108.08,37691,19.94,74068.5,8.11,3.63,3.53,0,*7C
1531487109.29,37692,19.94,74068.5,8.17,3.85,3.81,0,*7E
1531487110.5,37693,19.94,74064.5,8.19,3.79,3.81,0,*72
1531487111.7,37694,19.94,74064.0,8.19,3.59,3.49,0,*73
1531487112.93,37695,19.94,74066.0,8.21,3.97,3.89,0,*77
1531487114.15,37696,19.94,74066.5,8.21,3.97,3.89,0,*74
1531487115.35,37697,19.94,74062.0,8.23,3.71,3.59,0,*72
1531487116.55,37698,19.94,74062.3,8.23,3.81,3.75,0,*7C
1531487117.78,37699,19.94,74064.0,8.25,4.15,4.05,0,*71
1531487118.98,37700,19.94,74062.8,8.27,4.31,4.27,0,*74
1531487120.17,37701,19.94,74060.3,8.27,4.31,4.19,0,*78
1531487121.41,37702,19.94,74060.0,8.29,4.63,4.37,0,*7E
1531487122.58,37703,19.94,74062.8,8.31,4.45,4.41,0,*73
1531487123.76,37704,19.94,74060.0,8.31,4.53,4.41,0,*73
1531487124.96,37705,19.94,74060.0,8.33,4.45,4.45,0,*73
1531487126.18,37706,19.94,74062.3,8.39,4.75,4.63,0,*7D
1531487127.4,37707,19.94,74062.5,8.39,4.63,4.59,0,*72
1531487128.64,37708,19.94,74058.0,8.45,4.79,4.67,0,*70
1531487129.87,37709,19.94,74062.3,8.41,4.71,4.53,0,*7A
1531487131.08,37710,19.94,74060.0,8.45,4.93,4.85,0,*71
1531487132.34,37711,19.94,74060.3,8.47,4.97,4.93,0,*71
1531487133.58,37712,19.94,74060.0,8.49,5.01,5.01,0,*78
1531487134.79,37713,19.94,74058.5,8.55,5.15,5.19,0,*78
1531487135.99,37714,19.94,74060.8,8.55,5.07,5.15,0,*70
1531487137.19,37715,19.94,74060.5,8.55,5.15,5.15,0,*72
1531487138.39,37716,19.94,74060.3,8.59,5.29,5.29,0,*7D
1531487139.61,37717,19.94,74062.8,8.59,5.19,5.19,0,*7C
1531487140.78,37718,19.94,74060.0,8.65,5.37,5.45,0,*79
1531487142.01,37719,19.94,74060.3,8.67,5.51,5.59,0,*77
1531487143.19,37720,19.94,74060.0,8.69,5.71,5.95,0,*71
1531487144.44,37721,19.94,74060.5,8.71,5.73,5.93,0,*7D
1531487145.64,37722,19.94,74058.3,8.73,5.49,5.55,0,*7F
1531487146.84,37723,19.94,74056.3,8.77,5.41,5.59,0,*7E
1531487148.07,37724,19.94,74058.8,8.77,5.49,5.51,0,*79
1531487149.25,37725,19.94,74064.0,8.79,5.45,5.67,0,*7F
1531487150.46,37726,19.94,74058.3,8.81,5.63,5.67,0,*7F
1531487151.67,37727,19.94,74056.5,8.87,5.05,5.11,0,*79
1531487152.86,37728,19.94,74056.5,8.87,4.67,4.81,0,*7B
1531487154.03,37729,19.94,74058.0,8.87,5.41,5.49,0,*7A
1531487155.25,37730,19.94,74062.0,8.89,5.27,5.37,0,*75
1531487156.42,37731,19.94,74058.5,8.91,5.29,5.41,0,*72
1531487157.61,37732,19.94,74062.5,8.93,5.33,5.41,0,*78
1531487158.83,37733,19.94,74060.8,8.93,5.27,5.29,0,*72
1531487160.02,37734,19.94,74060.3,8.93,5.29,5.29,0,*7B
1531487161.2,37735,19.94,74062.5,8.95,5.19,5.07,0,*73
1531487162.41,37736,19.94,74062.8,8.95,5.19,4.97,0,*78
1531487163.61,37737,19.94,74062.0,8.95,5.07,4.79,0,*76
1531487164.84,37738,19.94,74062.8,8.99,5.05,4.63,0,*7C
1531487166.03,37739,19.94,74064.8,8.97,5.37,4.89,0,*76
1531487167.27,37740,19.94,74062.5,9.01,5.27,4.59,0,*7A
1531487168.5,37741,19.94,74062.3,9.03,4.71,3.79,0,*7E
1531487169.72,37742,19.94,74062.3,9.01,5.27,4.15,0,*70
1531487170.91,37743,19.94,74060.0,9.03,5.51,4.15,0,*72
1531487172.1,37744,19.94,74062.8,9.03,5.41,3.67,0,*76
1531487173.3,37745,19.94,74060.0,9.09,5.59,3.53,0,*73
1531487174.53,37746,19.94,74058.8,9.11,5.37,2.69,0,*79
1531487175.75,37747,19.94,74064.3,9.11,5.23,1.59,0,*7D
1531487176.92,37748,19.94,74066.0,9.13,5.41,0.97,0,*47
1531487178.11,37749,19.94,74066.5,9.13,5.41,0.33,0,*48
1531487179.32,37750,19.94,74068.3,9.17,5.77,-0.49,0,*61
1531487180.56,37751,19.94,74070.0,9.21,5.89,-1.05,0,*5D
1531487181.74,37752,19.94,74070.3,9.25,4.85,-2.95,0,*5D
1531487182.99,37753,19.94,74072.0,9.31,4.97,-3.67,0,*56
1531487184.19,37754,19.94,74070.0,9.35,3.85,-5.43,0,*51
1531487185.4,37755,19.94,74066.8,9.37,3.89,-5.65,0,*5A
1531487186.61,37756,19.94,74064.0,9.43,4.81,-4.85,0,*5A
1531487187.88,37757,19.94,74066.0,9.53,4.31,-5.23,0,*5C
1531487189.09,37758,19.94,74070.0,9.59,3.19,-6.31,0,*54
1531487190.31,37759,19.94,74064.8,9.65,0.75,-8.25,0,*68
1531487191.51,37760,19.94,74066.3,9.67,0.83,-7.53,0,*67
1531487192.75,37761,19.94,74064.3,9.73,-0.03,-7.43,0,*77
1531487193.96,37762,19.94,74066.3,9.79,-0.45,-7.35,0,*4D
1531487195.14,37763,19.94,74066.0,9.83,-0.29,-6.43,0,*43
1531487196.34,37764,19.94,74070.5,9.91,0.13,-5.43,0,*60
1531487197.55,37765,19.94,74070.0,9.95,-1.29,-6.23,0,*75
1531487198.77,37766,19.94,74068.0,10.05,-0.53,-5.11,0,*79
1531487200.02,37767,19.94,74066.3,10.07,-2.75,-7.49,0,*43
1531487201.24,37768,19.94,74070.0,10.09,-3.63,-8.29,0,*4D
1531487202.43,37769,19.94,74070.3,10.13,-4.17,-8.45,0,*49
1531487203.67,37770,19.94,74072.8,10.13,-3.71,-7.99,0,*48
1531487204.89,37771,19.94,74066.8,10.17,-2.23,-5.85,0,*44
1531487206.14,37772,19.94,74070.8,10.23,-1.43,-4.37,0,*4D
1531487207.34,37773,19.94,74070.3,10.33,-1.55,-3.67,0,*48
1531487208.59,37774,19.94,74070.3,10.39,-2.11,-3.67,0,*46
1531487209.81,37775,19.94,74066.5,10.47,-4.45,-5.23,0,*4F
1531487211.06,37776,19.94,74064.5,10.51,-5.07,-5.31,0,*4F
1531487212.3,37777,19.94,74066.0,10.53,-5.81,-5.39,0,*4A
1531487213.54,37778,19.94,74070.8,10.57,-5.77,-4.99,0,*43
1531487214.78,37779,19.94,74060.3,10.61,-6.73,-5.81,0,*48
1531487215.99,37780,19.94,74064.8,10.61,-7.83,-6.73,0,*4E
1531487217.23,37781,19.94,74068.8,10.61,-6.89,-5.73,0,*47
1531487218.45,37782,19.94,74068.8,10.63,-6.47,-5.31,0,*42
1531487219.66,37783,19.94,74068.3,10.67,-5.03,-3.79,0,*4E
1531487220.88,37784,19.94,74074.0,10.69,-4.21,-3.55,0,*48
1531487222.13,37785,19.94,74072.8,10.71,-2.95,-2.55,0,*48
1531487223.36,37786,19.94,74072.5,10.79,-1.09,-1.17,0,*40
1531487224.6,37787,19.94,74074.0,10.85,-1.35,-1.91,0,*43
1531487225.81,37788,19.94,74072.3,10.93,-0.69,-1.83,0,*70
1531487226.99,37789,19.94,74072.5,10.97,-0.49,-2.35,0,*79
1531487228.19,37790,19.94,74078.3,11.05,-0.49,-2.87,0,*72
1531487229.4,37791,19.94,74074.3,11.13,0.29,-2.95,0,*5C
1531487230.63,37792,19.94,74078.8,11.19,-0.57,-4.53,0,*7D
1531487231.88,37793,19.94,74076.5,11.23,-2.11,-6.51,0,*45
1531487233.08,37794,19.94,74078.8,11.29,-3.23,-7.53,0,*4B
1531487234.33,37795,19.94,74078.5,11.31,-6.05,-9.83,0,*41
1531487235.56,37796,19.94,74078.8,11.37,-7.83,-10.45,0,*79
1531487236.8,37797,19.94,74072.8,11.37,-9.31,-11.01,0,*7E
1531487238.03,37798,19.94,74074.3,11.35,-10.63,-11.15,0,*49
1531487239.28,37799,19.94,74072.5,11.37,-11.41,-10.57,0,*4C
1531487240.51,37800,19.94,74070.5,11.39,-11.23,-9.41,0,*76
1531487241.75,37801,19.94,74074.8,11.39,-13.87,-10.97,0,*48
1531487243.0,37802,19.94,74076.3,11.39,-14.51,-10.35,0,*4F
1531487244.24,37803,19.94,74072.3,11.39,-16.79,-12.07,0,*45
1531487245.51,37804,19.94,74068.0,11.31,-16.75,-11.63,0,*47
1531487246.76,37805,19.94,74066.5,11.27,-15.21,-9.75,0,*7D
1531487248.0,37806,19.94,74070.3,11.25,-14.51,-9.79,0,*76
1531487249.21,37807,19.94,74068.3,11.21,-15.15,-10.93,0,*4E
1531487250.45,37808,19.94,74070.0,11.19,-13.93,-10.53,0,*4E
1531487251.66,37809,19.94,74064.3,11.13,-12.29,-9.75,0,*79
1531487252.86,37810,19.94,74066.3,11.13,-10.31,-8.33,0,*79
1531487254.09,37811,19.94,74066.3,11.15,-8.17,-6.51,0,*49
1531487255.29,37812,19.94,74064.0,11.17,-7.83,-6.55,0,*4E
1531487256.52,37813,19.94,74066.0,11.21,-7.65,-6.73,0,*46
1531487257.77,37814,19.94,74064.5,11.23,-8.93,-7.99,0,*40
1531487259.03,37815,19.94,74064.3,11.23,-8.51,-7.23,0,*4E
1531487260.25,37816,19.94,74064.5,11.27,-7.83,-6.09,0,*40
1531487261.48,37817,19.94,74064.8,11.35,-7.99,-6.13,0,*42
1531487262.73,37818,19.94,74064.5,11.39,-7.69,-5.85,0,*42
1531487264.0,37819,19.94,74064.5,11.41,-9.45,-7.39,0,*49
1531487265.24,37820,19.94,74066.8,11.41,-8.45,-6.23,0,*48
1531487266.52,37821,19.94,74066.3,11.45,-7.99,-5.85,0,*4C
1531487267.76,37822,19.94,74066.8,11.49,-9.41,-7.53,0,*41
1531487268.98,37823,19.94,74066.0,11.49,-11.11,-9.27,0,*71
1531487270.22,37824,19.94,74068.0,11.51,-10.67,-8.97,0,*75
1531487271.44,37825,19.94,74066.8,11.53,-11.19,-9.67,0,*70
1531487272.65,37826,19.94,74068.3,11.51,-12.47,-10.93,0,*4A
1531487273.88,37827,19.94,74068.8,11.49,-12.39,-10.57,0,*43
1531487275.13,37828,19.94,74070.3,11.49,-11.41,-9.45,0,*7B
1531487276.38,37829,19.94,74070.5,11.49,-11.55,-9.89,0,*7F
1531487277.67,37830,19.94,74072.0,11.49,-11.93,-10.41,0,*41
1531487278.9,37831,19.94,74072.5,11.49,-12.25,-10.53,0,*4D
1531487280.15,37832,19.94,74072.0,11.49,-11.15,-9.41,0,*75
1531487281.4,37833,19.94,74070.8,11.49,-11.37,-9.75,0,*73
1531487282.65,37834,19.94,74068.0,11.49,-12.65,-10.85,0,*47
1531487283.89,37835,19.94,74068.8,11.49,-12.21,-10.15,0,*4F
1531487285.13,37836,19.94,74068.5,11.47,-12.93,-10.71,0,*49
1531487286.33,37837,19.94,74070.5,11.47,-12.47,-10.23,0,*46
1531487287.57,37838,19.94,74072.8,11.47,-11.85,-10.05,0,*40
1531487288.8,37839,19.94,74068.8,11.47,-11.59,-10.45,0,*44
1531487290.01,37840,19.94,74070.8,11.43,-10.53,-10.31,0,*46
1531487291.24,37841,19.94,74070.3,11.45,-10.57,-11.45,0,*47
1531487292.5,37842,19.94,74068.3,11.45,-11.55,-12.97,0,*4B
1531487293.74,37843,19.94,74064.5,11.43,-12.21,-14.05,0,*41
1531487295.0,37844,19.94,74064.8,11.41,-12.93,-14.75,0,*4A
1531487296.25,37845,19.94,74062.5,11.41,-12.35,-13.73,0,*46
1531487297.54,37846,19.94,74058.8,11.41,-10.67,-11.51,0,*42
1531487298.77,37847,19.94,74058.0,11.41,-10.57,-10.85,0,*48
1531487300.0,37848,19.94,74066.0,11.45,-10.19,-9.67,0,*7D
1531487301.22,37849,19.94,74064.8,11.47,-12.39,-11.33,0,*46
1531487302.48,37850,19.94,74068.5,11.49,-12.35,-10.01,0,*4C
1531487303.7,37851,19.94,74064.0,11.53,-10.89,-8.33,0,*7B
1531487304.89,37852,19.94,74062.3,11.59,-9.89,-6.81,0,*4D
1531487306.13,37853,19.94,74058.5,11.63,-10.97,-7.27,0,*7F
1531487307.4,37854,19.94,74062.3,11.67,-12.15,-8.03,0,*7D
1531487308.67,37855,19.94,74060.0,11.67,-14.83,-10.31,0,*4D
1531487309.92,37856,19.94,74056.8,11.65,-16.65,-11.51,0,*41
1531487311.21,37857,19.94,74058.0,11.61,-17.93,-11.89,0,*49
1531487312.48,37858,19.94,74060.8,11.57,-18.55,-11.59,0,*4B
1531487313.69,37859,19.94,74064.5,11.51,-19.03,-11.11,0,*42
1531487314.93,37860,19.94,74064.0,11.49,-18.69,-10.15,0,*49
1531487316.13,37861,19.94,74064.5,11.43,-17.83,-8.59,0,*78
1531487317.38,37862,19.94,74068.5,11.39,-17.03,-7.31,0,*7F
1531487318.62,37863,19.94,74066.0,11.37,-15.71,-5.51,0,*73
1531487319.86,37864,19.94,74064.0,11.35,-14.83,-4.61,0,*78
1531487321.12,37865,19.94,74064.3,11.31,-13.61,-3.75,0,*74